Regional Weather Roundup
Issued by NWS

Home | Current Version | Previous Version | Graphics & Text | Print | Product List | Glossary On
Versions: 1 2 3 4 5 6 7 8 9 10 11 12 13 14 15 16 17 18 19 20 21 22 23 24 25 26 27 28 29 30 31 32 33 34 35 36 37 38 39 40 41 42 43 44 45 46 47 48 49 50
000
ASUS43 KTOP 240208
RWRKS

WEATHER ROUNDUP FOR KANSAS
NATIONAL WEATHER SERVICE GOODLAND KS
900 PM CDT MON MAY 23 2016

NOTE:  "FAIR" INDICATES FEW OR NO CLOUDS BELOW 12,000 FEET WITH NO
SIGNIFICANT WEATHER AND/OR OBSTRUCTIONS TO VISIBILITY.

KSZ001>006-013>018-027>032-041>047-240300-
NORTHWEST KANSAS

CITY           SKY/WX    TMP DP  RH WIND       PRES   REMARKS
GOODLAND       CLEAR     67  51  56 SE3       29.81R
HAYS           CLEAR     73  63  68 SE9       29.75S
HILL CITY      CLEAR     73  64  73 S5        29.76R
RUSSELL        CLEAR     73  65  75 SE13      29.74S
$$

KSZ061>065-074>080-084>089-240300-
SOUTHWEST KANSAS

CITY           SKY/WX    TMP DP  RH WIND       PRES   REMARKS
DODGE CITY     CLEAR     71  68  90 SE13      29.74R
ELKHART          N/A     71  53  52 SE9         N/A
GARDEN CITY    CLEAR     74  59  59 SE10      29.72S
GREAT BEND     MOCLDY    73  63  68 S16       29.75S
LIBERAL        CLEAR     75  52  43 SE10      29.74R
PRATT          MOCLDY    69  64  84 SE13      29.77R
$$

KSZ066>073-081>083-090>101-240300-
SOUTHEAST KANSAS

CITY           SKY/WX    TMP DP  RH WIND       PRES   REMARKS
CHANUTE        PTCLDY    66  62  87 SE8       29.85F
COFFEYVILLE    MOCLDY    67  61  81 S8        29.86R
HUTCHINSON     CLOUDY    70  63  78 SE14      29.79R
MEDICINE LODGE   N/A     73  67  81 SE12      29.77R
NEWTON         CLOUDY    66  57  72 S10       29.83R
PARSONS        CLOUDY    66  62  87 MISG      29.86F
WICHITA INTL   CLOUDY    70  63  78 S14       29.79S
WICHITA JABRA  CLOUDY    68  62  81 SE13      29.80S
WICHITA MCCONL CLOUDY    68  63  83 S14       29.80S
WINFIELD       CLOUDY    69  64  84 SE12      29.82R
$$

KSZ007>012-019>026-033>040-048>060-102>105-240300-
NORTHEAST KANSAS

CITY           SKY/WX    TMP DP  RH WIND       PRES   REMARKS
CONCORDIA      CLOUDY    70  59  68 S15       29.78R
EMPORIA        CLOUDY    65  62  90 SE9       29.82F
LAWRENCE         N/A    N/A N/A N/A MISG      29.85R
MANHATTAN      CLOUDY    70  61  73 E6        29.80R
MARYSVILLE     CLOUDY    70  63  78 S6        29.80S
OLATHE IND     PTCLDY    63  62  97 S3        29.87R
OLATHE EXE     PTCLDY    63  61  93 CALM      29.86R
SALINA         CLOUDY    72  61  68 S15G22    29.78S
TOPEKA BILLARD CLOUDY    66  60  81 SE6       29.84R
TOPEKA FORBES  MOCLDY    67  61  81 SE7       29.84R
$$



USA.gov is the U.S. government's official web portal to all federal, state and local government web resources and services.